TimeEST,TemperatureF,Dew PointF,Humidity,Sea Level PressureIn,VisibilityMPH,Wind Direction,Wind SpeedMPH,Gust SpeedMPH,PrecipitationIn,Events,Conditions,WindDirDegrees,DateUTC
12:53 AM,30.9,24.1,76,30.14,10.0,SW,10.4,-,N/A,,Partly Cloudy,220,2013-01-06 05:53:00
1:53 AM,32.0,25.0,75,30.12,10.0,SSW,9.2,-,N/A,,Overcast,200,2013-01-06 06:53:00
2:53 AM,32.0,25.0,75,30.10,10.0,South,9.2,-,N/A,,Overcast,190,2013-01-06 07:53:00
3:53 AM,32.0,25.0,75,30.09,10.0,South,9.2,-,N/A,,Overcast,190,2013-01-06 08:53:00
4:53 AM,30.9,25.0,79,30.06,10.0,SSW,9.2,-,N/A,,Overcast,210,2013-01-06 09:53:00
5:53 AM,32.0,26.1,79,30.04,10.0,SSW,10.4,-,N/A,,Overcast,200,2013-01-06 10:53:00
6:53 AM,32.0,26.1,79,30.04,10.0,SSW,10.4,-,N/A,,Overcast,200,2013-01-06 11:53:00
7:53 AM,32.0,26.1,79,30.04,10.0,SSW,11.5,-,N/A,,Overcast,200,2013-01-06 12:53:00
8:53 AM,33.1,27.0,78,30.04,9.0,SSW,13.8,-,N/A,,Overcast,210,2013-01-06 13:53:00
9:53 AM,34.0,28.0,79,30.04,9.0,SSW,11.5,-,N/A,,Overcast,210,2013-01-06 14:53:00
10:44 AM,33.8,28.4,81,30.02,10.0,SSW,12.7,-,N/A,,Overcast,210,2013-01-06 15:44:00
10:53 AM,35.1,28.9,78,30.05,10.0,SW,12.7,-,N/A,,Overcast,220,2013-01-06 15:53:00
11:53 AM,35.1,28.9,78,30.03,10.0,SW,12.7,-,N/A,,Overcast,220,2013-01-06 16:53:00
12:53 PM,35.1,28.9,78,30.01,10.0,SW,9.2,-,N/A,,Overcast,230,2013-01-06 17:53:00
1:53 PM,36.0,28.9,76,30.01,9.0,WSW,8.1,-,N/A,,Overcast,250,2013-01-06 18:53:00
2:27 PM,35.6,30.2,81,30.00,2.5,West,10.4,-,0.00,,Overcast,260,2013-01-06 19:27:00
2:53 PM,34.0,30.9,89,30.04,3.0,West,9.2,-,0.00,,Overcast,260,2013-01-06 19:53:00
3:00 PM,33.8,30.2,87,30.00,4.0,West,8.1,-,0.00,,Overcast,270,2013-01-06 20:00:00
3:07 PM,33.8,30.2,87,30.00,4.0,West,10.4,-,0.00,Snow,Light Snow,260,2013-01-06 20:07:00
3:26 PM,33.8,30.2,87,30.01,5.0,West,10.4,-,0.00,,Overcast,260,2013-01-06 20:26:00
3:53 PM,34.0,30.9,89,30.07,4.0,West,13.8,19.6,0.01,,Overcast,280,2013-01-06 20:53:00
4:03 PM,33.8,30.2,87,30.04,3.0,WNW,10.4,21.9,N/A,,Overcast,290,2013-01-06 21:03:00
4:06 PM,33.8,30.2,87,30.04,3.0,WNW,10.4,-,N/A,,Overcast,290,2013-01-06 21:06:00
4:18 PM,32.0,30.2,93,30.05,4.0,WNW,13.8,-,N/A,,Overcast,290,2013-01-06 21:18:00
4:23 PM,32.0,30.2,93,30.06,4.0,West,12.7,-,N/A,,Overcast,280,2013-01-06 21:23:00
4:34 PM,30.2,28.4,93,30.06,2.5,West,15.0,-,N/A,,Overcast,280,2013-01-06 21:34:00
4:53 PM,30.0,28.0,92,30.12,3.0,NW,17.3,24.2,N/A,,Overcast,310,2013-01-06 21:53:00
5:27 PM,30.2,26.6,86,30.10,4.0,WNW,16.1,25.3,N/A,,Overcast,290,2013-01-06 22:27:00
5:53 PM,28.9,25.0,85,30.16,6.0,West,13.8,-,N/A,,Overcast,280,2013-01-06 22:53:00
6:53 PM,28.0,23.0,81,30.19,7.0,West,11.5,-,N/A,,Overcast,270,2013-01-06 23:53:00
7:17 PM,26.6,23.0,86,30.17,6.0,WNW,12.7,-,N/A,,Overcast,290,2013-01-07 00:17:00
7:53 PM,27.0,23.0,85,30.23,6.0,West,10.4,-,N/A,,Overcast,270,2013-01-07 00:53:00
8:53 PM,26.1,21.9,84,30.25,5.0,WNW,9.2,-,N/A,,Overcast,290,2013-01-07 01:53:00
9:53 PM,26.1,21.9,84,30.27,4.0,West,10.4,-,N/A,,Overcast,270,2013-01-07 02:53:00
10:53 PM,26.1,23.0,88,30.30,4.0,West,8.1,-,N/A,,Overcast,280,2013-01-07 03:53:00
11:43 PM,26.6,23.0,86,30.27,4.0,West,8.1,-,N/A,,Overcast,280,2013-01-07 04:43:00
11:53 PM,27.0,23.0,85,30.32,4.0,West,8.1,-,N/A,,Overcast,280,2013-01-07 04:53:00